Time,TemperatureF,DewpointF,PressureIn,WindDirection,WindDirectionDegrees,WindSpeedMPH,WindSpeedGustMPH,Humidity,HourlyPrecipIn,Conditions,Clouds,dailyrainin,SolarRadiationWatts/m^2,SoftwareType,DateUTC
2013-05-13 00:00:00,36.4,23.9,30.12,NE,35,0.0,1.0,60,0.00,,SCT055,0.00,0.00,VWS V14.01,2013-05-13 05:00:00,
2013-05-13 00:01:00,36.3,23.8,30.12,NE,35,0.0,1.0,60,0.00,,---,0.00,,VWS V14.01,2013-05-13 05:01:00,
2013-05-13 00:06:00,36.0,23.1,30.12,NE,35,0.0,1.0,59,0.00,,---,0.00,,VWS V14.01,2013-05-13 05:06:00,
2013-05-13 00:10:00,35.9,23.4,30.12,NE,35,0.0,1.0,60,0.00,,SCT055,0.00,0.00,VWS V14.01,2013-05-13 05:10:00,
2013-05-13 00:11:00,35.9,23.4,30.12,NE,35,0.0,0.0,60,0.00,,---,0.00,,VWS V14.01,2013-05-13 05:11:00,
2013-05-13 00:16:00,35.9,23.4,30.12,NE,35,0.0,0.0,60,0.00,,---,0.00,,VWS V14.01,2013-05-13 05:16:00,
2013-05-13 00:20:00,35.8,24.1,30.12,NE,35,0.0,0.0,62,0.00,,SCT055,0.00,0.00,VWS V14.01,2013-05-13 05:20:00,
2013-05-13 00:21:00,35.8,24.1,30.12,NE,35,0.0,0.0,62,0.00,,---,0.00,,VWS V14.01,2013-05-13 05:21:00,
2013-05-13 00:26:00,35.7,23.6,30.12,NE,35,0.0,0.0,61,0.00,,---,0.00,,VWS V14.01,2013-05-13 05:26:00,
2013-05-13 00:30:00,35.6,24.3,30.12,NE,35,0.0,0.0,63,0.00,,SCT055,0.00,0.00,VWS V14.01,2013-05-13 05:30:00,
2013-05-13 00:31:00,35.6,24.3,30.12,NE,35,0.0,0.0,63,0.00,,---,0.00,,VWS V14.01,2013-05-13 05:31:00,
2013-05-13 00:36:00,35.5,24.9,30.12,NE,35,0.0,0.0,65,0.00,,---,0.00,,VWS V14.01,2013-05-13 05:36:00,
2013-05-13 00:40:00,35.4,25.2,30.12,NE,35,0.0,0.0,66,0.00,,SCT055,0.00,0.00,VWS V14.01,2013-05-13 05:40:00,
2013-05-13 00:41:00,35.4,25.2,30.12,NE,35,0.0,0.0,66,0.00,,---,0.00,,VWS V14.01,2013-05-13 05:41:00,
2013-05-13 00:46:00,35.2,25.7,30.12,NE,35,0.0,0.0,68,0.00,,---,0.00,,VWS V14.01,2013-05-13 05:46:00,
2013-05-13 00:50:00,35.1,25.6,30.12,NE,35,0.0,0.0,68,0.00,,SCT055,0.00,0.00,VWS V14.01,2013-05-13 05:50:00,
2013-05-13 00:51:00,35.1,25.6,30.12,NE,35,0.0,0.0,68,0.00,,---,0.00,,VWS V14.01,2013-05-13 05:51:00,
2013-05-13 00:56:00,34.9,25.8,30.12,NE,35,0.0,0.0,69,0.00,,---,0.00,,VWS V14.01,2013-05-13 05:56:00,
2013-05-13 01:00:00,34.8,26.0,30.12,NE,35,0.0,0.0,70,0.00,,SCT055,0.00,0.00,VWS V14.01,2013-05-13 06:00:00,
2013-05-13 01:01:00,34.7,25.9,30.12,NE,35,0.0,0.0,70,0.00,,---,0.00,,VWS V14.01,2013-05-13 06:01:00,
2013-05-13 01:06:00,34.5,26.1,30.12,NE,35,0.0,0.0,71,0.00,,---,0.00,,VWS V14.01,2013-05-13 06:06:00,
2013-05-13 01:10:00,34.3,26.2,30.12,NE,35,0.0,0.0,72,0.00,,SCT055,0.00,0.00,VWS V14.01,2013-05-13 06:10:00,
2013-05-13 01:11:00,34.2,26.1,30.12,NE,35,0.0,0.0,72,0.00,,---,0.00,,VWS V14.01,2013-05-13 06:11:00,
2013-05-13 01:16:00,34.0,25.9,30.12,NE,35,0.0,0.0,72,0.00,,---,0.00,,VWS V14.01,2013-05-13 06:16:00,
2013-05-13 01:20:00,33.8,26.1,30.12,NE,35,0.0,0.0,73,0.00,,SCT055,0.00,0.00,VWS V14.01,2013-05-13 06:20:00,
2013-05-13 01:21:00,33.8,26.1,30.12,NE,35,0.0,0.0,73,0.00,,---,0.00,,VWS V14.01,2013-05-13 06:21:00,
2013-05-13 01:26:00,33.5,26.1,30.12,NE,35,0.0,0.0,74,0.00,,---,0.00,,VWS V14.01,2013-05-13 06:26:00,
2013-05-13 01:30:00,33.3,25.9,30.13,NE,35,0.0,0.0,74,0.00,,SCT055,0.00,0.00,VWS V14.01,2013-05-13 06:30:00,
2013-05-13 01:31:00,33.3,25.9,30.13,NE,35,0.0,0.0,74,0.00,,---,0.00,,VWS V14.01,2013-05-13 06:31:00,
2013-05-13 01:36:00,33.0,26.0,30.12,NE,35,0.0,0.0,75,0.00,,---,0.00,,VWS V14.01,2013-05-13 06:36:00,
2013-05-13 01:40:00,32.8,26.1,30.12,NE,35,0.0,0.0,76,0.00,,SCT055,0.00,0.00,VWS V14.01,2013-05-13 06:40:00,
2013-05-13 01:41:00,32.8,26.1,30.13,NE,35,0.0,0.0,76,0.00,,---,0.00,,VWS V14.01,2013-05-13 06:41:00,
2013-05-13 01:46:00,32.7,26.0,30.13,NE,35,0.0,0.0,76,0.00,,---,0.00,,VWS V14.01,2013-05-13 06:46:00,
2013-05-13 01:50:00,32.7,26.0,30.12,NE,35,0.0,0.0,76,0.00,,SCT055,0.00,0.00,VWS V14.01,2013-05-13 06:50:00,
2013-05-13 01:51:00,32.7,26.0,30.12,NE,35,0.0,0.0,76,0.00,,---,0.00,,VWS V14.01,2013-05-13 06:51:00,
2013-05-13 01:56:00,32.7,26.0,30.13,NE,35,0.0,0.0,76,0.00,,---,0.00,,VWS V14.01,2013-05-13 06:56:00,
2013-05-13 02:00:00,32.7,26.0,30.12,NE,35,0.0,1.0,76,0.00,,SCT055,0.00,0.00,VWS V14.01,2013-05-13 07:00:00,
2013-05-13 02:01:00,32.7,26.0,30.13,NE,35,0.0,0.0,76,0.00,,---,0.00,,VWS V14.01,2013-05-13 07:01:00,
2013-05-13 02:06:00,32.7,26.0,30.13,NE,35,0.0,0.0,76,0.00,,---,0.00,,VWS V14.01,2013-05-13 07:06:00,
2013-05-13 02:10:00,32.7,26.0,30.13,NE,35,0.0,0.0,76,0.00,,SCT055,0.00,0.00,VWS V14.01,2013-05-13 07:10:00,
2013-05-13 02:11:00,32.7,26.0,30.13,NE,35,0.0,0.0,76,0.00,,---,0.00,,VWS V14.01,2013-05-13 07:11:00,
2013-05-13 02:16:00,32.7,26.0,30.12,NE,35,0.0,0.0,76,0.00,,---,0.00,,VWS V14.01,2013-05-13 07:16:00,
2013-05-13 02:20:00,32.7,26.0,30.12,NE,35,0.0,0.0,76,0.00,,SCT055,0.00,0.00,VWS V14.01,2013-05-13 07:20:00,
2013-05-13 02:21:00,32.7,26.0,30.12,NE,35,0.0,0.0,76,0.00,,---,0.00,,VWS V14.01,2013-05-13 07:21:00,
2013-05-13 02:26:00,32.7,26.0,30.12,NE,35,0.0,0.0,76,0.00,,---,0.00,,VWS V14.01,2013-05-13 07:26:00,
2013-05-13 02:30:00,32.7,26.0,30.12,NE,35,0.0,0.0,76,0.00,,SCT055,0.00,0.00,VWS V14.01,2013-05-13 07:30:00,
2013-05-13 02:31:00,32.7,26.0,30.12,NE,35,0.0,0.0,76,0.00,,---,0.00,,VWS V14.01,2013-05-13 07:31:00,
2013-05-13 02:36:00,32.7,26.0,30.12,NE,35,0.0,0.0,76,0.00,,---,0.00,,VWS V14.01,2013-05-13 07:36:00,
2013-05-13 02:40:00,32.7,26.0,30.12,NE,35,0.0,0.0,76,0.00,,SCT055,0.00,0.00,VWS V14.01,2013-05-13 07:40:00,
2013-05-13 02:41:00,32.7,26.0,30.12,NE,35,0.0,0.0,76,0.00,,---,0.00,,VWS V14.01,2013-05-13 07:41:00,
2013-05-13 02:46:00,30.9,26.1,30.12,NE,35,0.0,0.0,82,0.00,,---,0.00,,VWS V14.01,2013-05-13 07:46:00,
2013-05-13 02:50:00,30.8,26.0,30.12,NE,35,0.0,0.0,82,0.00,,SCT055,0.00,0.00,VWS V14.01,2013-05-13 07:50:00,
2013-05-13 02:51:00,30.8,26.0,30.12,NE,35,0.0,0.0,82,0.00,,---,0.00,,VWS V14.01,2013-05-13 07:51:00,
2013-05-13 02:56:00,30.7,25.9,30.12,NE,35,0.0,0.0,82,0.00,,---,0.00,,VWS V14.01,2013-05-13 07:56:00,
2013-05-13 03:00:00,30.6,25.8,30.12,NE,35,0.0,0.0,82,0.00,,SCT055,0.00,0.00,VWS V14.01,2013-05-13 08:00:00,
2013-05-13 03:01:00,30.6,25.8,30.12,NE,35,0.0,0.0,82,0.00,,---,0.00,,VWS V14.01,2013-05-13 08:01:00,
2013-05-13 03:06:00,30.5,26.0,30.12,NE,35,0.0,0.0,83,0.00,,---,0.00,,VWS V14.01,2013-05-13 08:06:00,
2013-05-13 03:10:00,30.5,26.0,30.12,NE,35,0.0,0.0,83,0.00,,SCT055,0.00,0.00,VWS V14.01,2013-05-13 08:10:00,
2013-05-13 03:11:00,30.5,26.0,30.12,NE,35,0.0,0.0,83,0.00,,---,0.00,,VWS V14.01,2013-05-13 08:11:00,
2013-05-13 03:16:00,30.4,25.9,30.11,NE,35,0.0,0.0,83,0.00,,---,0.00,,VWS V14.01,2013-05-13 08:16:00,
2013-05-13 03:20:00,30.3,25.8,30.11,NE,35,0.0,0.0,83,0.00,,SCT055,0.00,0.00,VWS V14.01,2013-05-13 08:20:00,
2013-05-13 03:21:00,30.3,25.8,30.12,NE,35,0.0,0.0,83,0.00,,---,0.00,,VWS V14.01,2013-05-13 08:21:00,
2013-05-13 03:26:00,30.3,25.8,30.12,NE,35,0.0,0.0,83,0.00,,---,0.00,,VWS V14.01,2013-05-13 08:26:00,
2013-05-13 03:30:00,30.2,26.0,30.12,NE,35,0.0,0.0,84,0.00,,SCT055,0.00,0.00,VWS V14.01,2013-05-13 08:30:00,
2013-05-13 03:31:00,30.2,26.0,30.12,NE,35,0.0,0.0,84,0.00,,---,0.00,,VWS V14.01,2013-05-13 08:31:00,
2013-05-13 03:36:00,30.2,26.0,30.12,NE,35,0.0,0.0,84,0.00,,---,0.00,,VWS V14.01,2013-05-13 08:36:00,
2013-05-13 03:40:00,30.1,25.9,30.12,NE,35,0.0,0.0,84,0.00,,SCT055,0.00,0.00,VWS V14.01,2013-05-13 08:40:00,
2013-05-13 03:41:00,30.1,25.9,30.12,NE,35,0.0,0.0,84,0.00,,---,0.00,,VWS V14.01,2013-05-13 08:41:00,
2013-05-13 03:46:00,30.1,25.9,30.12,NE,35,0.0,0.0,84,0.00,,---,0.00,,VWS V14.01,2013-05-13 08:46:00,
2013-05-13 03:50:00,30.0,25.8,30.12,NE,35,0.0,0.0,84,0.00,,SCT055,0.00,0.00,VWS V14.01,2013-05-13 08:50:00,
2013-05-13 03:51:00,30.0,25.8,30.12,NE,35,0.0,0.0,84,0.00,,---,0.00,,VWS V14.01,2013-05-13 08:51:00,
2013-05-13 03:56:00,29.9,25.7,30.12,NE,35,0.0,0.0,84,0.00,,---,0.00,,VWS V14.01,2013-05-13 08:56:00,
2013-05-13 04:00:00,29.8,25.6,30.12,NE,35,0.0,0.0,84,0.00,,SCT055,0.00,0.00,VWS V14.01,2013-05-13 09:00:00,
2013-05-13 04:01:00,29.8,25.6,30.12,NE,35,0.0,0.0,84,0.00,,---,0.00,,VWS V14.01,2013-05-13 09:01:00,
2013-05-13 04:06:00,29.7,25.5,30.12,NE,35,0.0,0.0,84,0.00,,---,0.00,,VWS V14.01,2013-05-13 09:06:00,
2013-05-13 04:10:00,29.6,25.4,30.12,NE,35,0.0,0.0,84,0.00,,SCT055,0.00,0.00,VWS V14.01,2013-05-13 09:10:00,
2013-05-13 04:11:00,29.6,25.4,30.12,NE,35,0.0,0.0,84,0.00,,---,0.00,,VWS V14.01,2013-05-13 09:11:00,
2013-05-13 04:15:00,29.5,25.3,30.12,NE,35,0.0,0.0,84,0.00,,---,0.00,,VWS V14.01,2013-05-13 09:15:00,
2013-05-13 04:20:00,29.4,25.2,30.12,NE,35,0.0,0.0,84,0.00,,---,0.00,,VWS V14.01,2013-05-13 09:20:00,
2013-05-13 04:25:00,29.3,25.4,30.12,NE,35,0.0,0.0,85,0.00,,---,0.00,,VWS V14.01,2013-05-13 09:25:00,
2013-05-13 04:30:00,29.3,25.4,30.12,NE,35,0.0,0.0,85,0.00,,---,0.00,,VWS V14.01,2013-05-13 09:30:00,
2013-05-13 04:35:00,29.2,25.3,30.12,NE,35,0.0,0.0,85,0.00,,---,0.00,,VWS V14.01,2013-05-13 09:35:00,
2013-05-13 04:40:00,29.2,25.3,30.12,NE,35,0.0,0.0,85,0.00,,---,0.00,,VWS V14.01,2013-05-13 09:40:00,
2013-05-13 04:45:00,29.1,25.2,30.12,NE,35,0.0,0.0,85,0.00,,---,0.00,,VWS V14.01,2013-05-13 09:45:00,
2013-05-13 04:50:00,29.0,25.1,30.12,NE,35,0.0,0.0,85,0.00,,---,0.00,,VWS V14.01,2013-05-13 09:50:00,
2013-05-13 04:55:00,29.0,25.1,30.12,NE,35,0.0,0.0,85,0.00,,---,0.00,,VWS V14.01,2013-05-13 09:55:00,
2013-05-13 05:00:00,28.9,25.0,30.12,NE,35,0.0,0.0,85,0.00,,---,0.00,,VWS V14.01,2013-05-13 10:00:00,
2013-05-13 05:05:00,28.8,25.1,30.13,NE,35,0.0,0.0,86,0.00,,---,0.00,,VWS V14.01,2013-05-13 10:05:00,
2013-05-13 05:10:00,28.8,25.1,30.13,NE,35,0.0,0.0,86,0.00,,---,0.00,,VWS V14.01,2013-05-13 10:10:00,
2013-05-13 05:15:00,28.8,25.1,30.13,NE,35,0.0,0.0,86,0.00,,---,0.00,,VWS V14.01,2013-05-13 10:15:00,
2013-05-13 05:20:00,28.7,25.0,30.13,NE,35,0.0,0.0,86,0.00,,---,0.00,,VWS V14.01,2013-05-13 10:20:00,
2013-05-13 05:25:00,28.7,25.0,30.13,NE,35,0.0,0.0,86,0.00,,---,0.00,,VWS V14.01,2013-05-13 10:25:00,
2013-05-13 05:30:00,28.6,25.0,30.13,NE,35,0.0,0.0,86,0.00,,---,0.00,,VWS V14.01,2013-05-13 10:30:00,
2013-05-13 05:35:00,28.6,25.0,30.13,NE,35,0.0,0.0,86,0.00,,---,0.00,,VWS V14.01,2013-05-13 10:35:00,
2013-05-13 05:40:00,28.6,25.0,30.13,NE,35,0.0,0.0,86,0.00,,---,0.00,,VWS V14.01,2013-05-13 10:40:00,
2013-05-13 05:45:00,28.7,25.0,30.14,NE,35,0.0,0.0,86,0.00,,---,0.00,,VWS V14.01,2013-05-13 10:45:00,
2013-05-13 05:50:00,28.7,25.0,30.14,NE,35,0.0,0.0,86,0.00,,---,0.00,,VWS V14.01,2013-05-13 10:50:00,
2013-05-13 05:55:00,28.7,25.0,30.14,NE,35,0.0,0.0,86,0.00,,---,0.00,,VWS V14.01,2013-05-13 10:55:00,
2013-05-13 06:00:00,28.7,25.0,30.14,NE,35,0.0,0.0,86,0.00,,---,0.00,,VWS V14.01,2013-05-13 11:00:00,
2013-05-13 06:05:00,28.7,25.0,30.14,NE,35,0.0,0.0,86,0.00,,---,0.00,,VWS V14.01,2013-05-13 11:05:00,
2013-05-13 06:10:00,28.7,25.3,30.14,NE,35,0.0,0.0,87,0.00,,---,0.00,,VWS V14.01,2013-05-13 11:10:00,
2013-05-13 06:15:00,28.8,25.4,30.14,NE,35,0.0,0.0,87,0.00,,---,0.00,,VWS V14.01,2013-05-13 11:15:00,
2013-05-13 06:20:00,28.9,25.5,30.14,WSW,240,0.0,0.0,87,0.00,,---,0.00,,VWS V14.01,2013-05-13 11:20:00,
2013-05-13 06:25:00,29.0,25.6,30.15,WSW,240,0.0,0.0,87,0.00,,---,0.00,,VWS V14.01,2013-05-13 11:25:00,
2013-05-13 06:30:00,29.1,25.7,30.15,WSW,240,0.0,0.0,87,0.00,,---,0.00,,VWS V14.01,2013-05-13 11:30:00,
2013-05-13 06:35:00,29.2,25.8,30.15,WSW,240,0.0,1.0,87,0.00,,---,0.00,,VWS V14.01,2013-05-13 11:35:00,
2013-05-13 06:40:00,29.5,26.1,30.15,WSW,240,0.0,0.0,87,0.00,,---,0.00,,VWS V14.01,2013-05-13 11:40:00,
2013-05-13 06:45:00,29.8,26.4,30.15,WSW,240,0.0,0.0,87,0.00,,---,0.00,,VWS V14.01,2013-05-13 11:45:00,
2013-05-13 06:50:00,30.1,26.7,30.15,WSW,240,0.0,1.0,87,0.00,,---,0.00,,VWS V14.01,2013-05-13 11:50:00,
2013-05-13 06:55:00,30.4,27.0,30.15,WSW,240,0.0,1.0,87,0.00,,---,0.00,,VWS V14.01,2013-05-13 11:55:00,
2013-05-13 07:00:00,30.9,27.5,30.15,WSW,240,0.0,1.0,87,0.00,,---,0.00,,VWS V14.01,2013-05-13 12:00:00,
2013-05-13 07:05:00,31.3,27.9,30.16,WSW,240,0.0,1.0,87,0.00,,---,0.00,,VWS V14.01,2013-05-13 12:05:00,
2013-05-13 07:10:00,31.7,28.0,30.16,WSW,240,0.0,1.0,86,0.00,,---,0.00,,VWS V14.01,2013-05-13 12:10:00,
2013-05-13 07:15:00,32.2,28.5,30.16,WSW,240,2.0,2.0,86,0.00,,---,0.00,,VWS V14.01,2013-05-13 12:15:00,
2013-05-13 07:20:00,32.9,28.9,30.16,WSW,240,0.0,0.0,85,0.00,,---,0.00,,VWS V14.01,2013-05-13 12:20:00,
2013-05-13 07:25:00,33.6,29.0,30.17,WSW,240,0.0,2.0,83,0.00,,---,0.00,,VWS V14.01,2013-05-13 12:25:00,
2013-05-13 07:30:00,34.3,29.1,30.17,WSW,240,0.0,0.0,81,0.00,,---,0.00,,VWS V14.01,2013-05-13 12:30:00,
2013-05-13 07:35:00,34.7,29.2,30.17,WSW,240,0.0,1.0,80,0.00,,---,0.00,,VWS V14.01,2013-05-13 12:35:00,
2013-05-13 07:40:00,35.1,29.3,30.17,WSW,246,0.0,1.0,79,0.00,,---,0.00,,VWS V14.01,2013-05-13 12:40:00,
2013-05-13 07:45:00,35.6,29.1,30.17,WSW,246,0.0,1.0,77,0.00,,---,0.00,,VWS V14.01,2013-05-13 12:45:00,
2013-05-13 07:50:00,36.1,29.0,30.17,WSW,246,0.0,1.0,75,0.00,,---,0.00,,VWS V14.01,2013-05-13 12:50:00,
2013-05-13 07:55:00,36.8,28.6,30.17,WSW,246,0.0,1.0,72,0.00,,---,0.00,,VWS V14.01,2013-05-13 12:55:00,
2013-05-13 08:00:00,37.7,28.5,30.17,WSW,246,0.0,0.0,69,0.00,,---,0.00,,VWS V14.01,2013-05-13 13:00:00,
2013-05-13 08:05:00,38.4,28.4,30.17,WNW,289,0.0,4.0,67,0.00,,---,0.00,,VWS V14.01,2013-05-13 13:05:00,
2013-05-13 08:10:00,39.2,28.8,30.17,WNW,289,1.0,2.0,66,0.00,,---,0.00,,VWS V14.01,2013-05-13 13:10:00,
2013-05-13 08:15:00,40.0,27.6,30.17,WNW,289,0.0,2.0,61,0.00,,---,0.00,,VWS V14.01,2013-05-13 13:15:00,
2013-05-13 08:20:00,40.5,26.0,30.17,NW,323,0.0,2.0,56,0.00,,---,0.00,,VWS V14.01,2013-05-13 13:20:00,
2013-05-13 08:25:00,41.0,23.8,30.17,NW,320,0.0,2.0,50,0.00,,---,0.00,,VWS V14.01,2013-05-13 13:25:00,
2013-05-13 08:30:00,41.4,22.2,30.17,NW,320,2.0,2.0,46,0.00,,---,0.00,,VWS V14.01,2013-05-13 13:30:00,
2013-05-13 08:35:00,41.8,22.5,30.17,NNE,13,0.0,5.0,46,0.00,,---,0.00,,VWS V14.01,2013-05-13 13:35:00,
2013-05-13 08:40:00,42.1,21.2,30.17,WNW,298,0.0,1.0,43,0.00,,---,0.00,,VWS V14.01,2013-05-13 13:40:00,
2013-05-13 08:45:00,42.3,21.4,30.16,WNW,300,3.0,5.0,43,0.00,,---,0.00,,VWS V14.01,2013-05-13 13:45:00,
2013-05-13 08:50:00,42.6,21.1,30.17,NW,321,1.0,1.0,42,0.00,,---,0.00,,VWS V14.01,2013-05-13 13:50:00,
2013-05-13 08:55:00,42.9,23.0,30.17,NNW,331,1.0,4.0,45,0.00,,---,0.00,,VWS V14.01,2013-05-13 13:55:00,
2013-05-13 09:00:00,43.2,22.8,30.17,WNW,296,3.0,4.0,44,0.00,,---,0.00,,VWS V14.01,2013-05-13 14:00:00,
2013-05-13 09:05:00,43.4,21.9,30.16,WNW,296,1.0,4.0,42,0.00,,---,0.00,,VWS V14.01,2013-05-13 14:05:00,
2013-05-13 09:10:00,43.6,22.0,30.17,WSW,257,2.0,4.0,42,0.00,,---,0.00,,VWS V14.01,2013-05-13 14:10:00,
2013-05-13 09:15:00,43.9,20.6,30.17,SW,227,1.0,5.0,39,0.00,,---,0.00,,VWS V14.01,2013-05-13 14:15:00,
2013-05-13 09:20:00,44.1,20.7,30.17,NW,309,3.0,3.0,39,0.00,,---,0.00,,VWS V14.01,2013-05-13 14:20:00,
2013-05-13 09:25:00,44.3,20.9,30.17,SW,222,0.0,3.0,39,0.00,,---,0.00,,VWS V14.01,2013-05-13 14:25:00,
2013-05-13 09:30:00,44.6,21.2,30.17,NNE,27,3.0,3.0,39,0.00,,---,0.00,,VWS V14.01,2013-05-13 14:30:00,
2013-05-13 09:35:00,44.7,21.3,30.17,NNE,33,0.0,3.0,39,0.00,,---,0.00,,VWS V14.01,2013-05-13 14:35:00,
2013-05-13 09:40:00,45.1,21.0,30.16,NE,53,0.0,0.0,38,0.00,,---,0.00,,VWS V14.01,2013-05-13 14:40:00,
2013-05-13 09:45:00,45.4,22.5,30.16,WNW,283,0.0,6.0,40,0.00,,---,0.00,,VWS V14.01,2013-05-13 14:45:00,
2013-05-13 09:50:00,46.1,22.5,30.16,SSE,164,0.0,1.0,39,0.00,,---,0.00,,VWS V14.01,2013-05-13 14:50:00,
2013-05-13 09:55:00,46.7,22.5,30.16,NW,320,1.0,5.0,38,0.00,,---,0.00,,VWS V14.01,2013-05-13 14:55:00,
2013-05-13 10:00:00,46.8,21.9,30.16,NW,310,2.0,2.0,37,0.00,,---,0.00,,VWS V14.01,2013-05-13 15:00:00,
2013-05-13 10:05:00,46.7,21.8,30.16,NNW,348,1.0,4.0,37,0.00,,---,0.00,,VWS V14.01,2013-05-13 15:05:00,
2013-05-13 10:10:00,46.7,21.2,30.16,NNE,29,2.0,3.0,36,0.00,,---,0.00,,VWS V14.01,2013-05-13 15:10:00,
2013-05-13 10:15:00,46.8,21.9,30.16,NNW,348,0.0,5.0,37,0.00,,---,0.00,,VWS V14.01,2013-05-13 15:15:00,
2013-05-13 10:20:00,47.0,21.5,30.16,NNW,338,2.0,3.0,36,0.00,,---,0.00,,VWS V14.01,2013-05-13 15:20:00,
2013-05-13 10:25:00,47.1,21.5,30.15,NNE,19,4.0,6.0,36,0.00,,---,0.00,,VWS V14.01,2013-05-13 15:25:00,
2013-05-13 10:30:00,47.4,23.1,30.16,NNE,25,0.0,0.0,38,0.00,,---,0.00,,VWS V14.01,2013-05-13 15:30:00,
2013-05-13 10:35:00,47.7,21.4,30.16,WSW,242,2.0,4.0,35,0.00,,---,0.00,,VWS V14.01,2013-05-13 15:35:00,
2013-05-13 10:40:00,48.2,21.2,30.16,South,180,1.0,1.0,34,0.00,,---,0.00,,VWS V14.01,2013-05-13 15:40:00,
2013-05-13 10:45:00,48.5,22.1,30.15,NE,39,2.0,5.0,35,0.00,,---,0.00,,VWS V14.01,2013-05-13 15:45:00,
2013-05-13 10:50:00,49.0,23.9,30.15,NNW,336,2.0,3.0,37,0.00,,---,0.00,,VWS V14.01,2013-05-13 15:50:00,
2013-05-13 10:55:00,49.3,20.7,30.15,NNW,330,1.0,9.0,32,0.00,,---,0.00,,VWS V14.01,2013-05-13 15:55:00,
2013-05-13 11:00:00,49.4,20.8,30.15,NNE,13,0.0,0.0,32,0.00,,---,0.00,,VWS V14.01,2013-05-13 16:00:00,
2013-05-13 11:05:00,49.8,20.4,30.14,ENE,57,2.0,4.0,31,0.00,,---,0.00,,VWS V14.01,2013-05-13 16:05:00,
2013-05-13 11:10:00,50.2,22.2,30.14,NW,325,0.0,2.0,33,0.00,,---,0.00,,VWS V14.01,2013-05-13 16:10:00,
2013-05-13 11:15:00,50.5,21.8,30.14,NE,46,1.0,9.0,32,0.00,,---,0.00,,VWS V14.01,2013-05-13 16:15:00,
2013-05-13 11:20:00,51.3,22.5,30.14,NE,55,0.0,1.0,32,0.00,,---,0.00,,VWS V14.01,2013-05-13 16:20:00,
2013-05-13 11:25:00,52.1,23.2,30.14,SE,138,1.0,2.0,32,0.00,,---,0.00,,VWS V14.01,2013-05-13 16:25:00,
2013-05-13 11:30:00,52.4,21.1,30.13,NW,306,1.0,2.0,29,0.00,,---,0.00,,VWS V14.01,2013-05-13 16:30:00,
2013-05-13 11:35:00,52.2,20.1,30.13,NW,307,0.0,3.0,28,0.00,,---,0.00,,VWS V14.01,2013-05-13 16:35:00,
2013-05-13 11:40:00,52.5,21.2,30.14,South,183,1.0,2.0,29,0.00,,---,0.00,,VWS V14.01,2013-05-13 16:40:00,
2013-05-13 11:45:00,53.0,24.0,30.13,SSW,205,2.0,5.0,32,0.00,,---,0.00,,VWS V14.01,2013-05-13 16:45:00,
2013-05-13 11:50:00,53.5,22.0,30.13,SSW,196,4.0,4.0,29,0.00,,---,0.00,,VWS V14.01,2013-05-13 16:50:00,
2013-05-13 11:55:00,53.8,21.5,30.13,SW,226,0.0,7.0,28,0.00,,---,0.00,,VWS V14.01,2013-05-13 16:55:00,
2013-05-13 12:00:00,54.2,21.0,30.13,NNW,331,7.0,9.0,27,0.00,,---,0.00,,VWS V14.01,2013-05-13 17:00:00,
2013-05-13 12:05:00,53.9,22.4,30.13,NNW,328,3.0,10.0,29,0.00,,---,0.00,,VWS V14.01,2013-05-13 17:05:00,
2013-05-13 12:10:00,54.0,22.5,30.12,NNW,327,0.0,0.0,29,0.00,,---,0.00,,VWS V14.01,2013-05-13 17:10:00,
2013-05-13 12:15:00,54.5,20.3,30.12,NW,317,1.0,5.0,26,0.00,,---,0.00,,VWS V14.01,2013-05-13 17:15:00,
2013-05-13 12:20:00,54.6,21.3,30.12,West,264,3.0,5.0,27,0.00,,---,0.00,,VWS V14.01,2013-05-13 17:20:00,
2013-05-13 12:25:00,55.3,21.0,30.12,South,187,3.0,12.0,26,0.00,,---,0.00,,VWS V14.01,2013-05-13 17:25:00,
2013-05-13 12:30:00,55.4,20.2,30.11,NW,318,4.0,4.0,25,0.00,,---,0.00,,VWS V14.01,2013-05-13 17:30:00,
2013-05-13 12:35:00,55.4,22.0,30.11,SW,232,3.0,5.0,27,0.00,,---,0.00,,VWS V14.01,2013-05-13 17:35:00,
2013-05-13 12:40:00,55.1,20.9,30.10,NNW,346,0.0,0.0,26,0.00,,---,0.00,,VWS V14.01,2013-05-13 17:40:00,
2013-05-13 12:45:00,55.6,21.3,30.10,NW,325,0.0,3.0,26,0.00,,---,0.00,,VWS V14.01,2013-05-13 17:45:00,
2013-05-13 12:50:00,56.2,21.8,30.10,South,169,0.0,1.0,26,0.00,,---,0.00,,VWS V14.01,2013-05-13 17:50:00,
2013-05-13 12:55:00,56.3,21.0,30.09,NW,320,2.0,4.0,25,0.00,,---,0.00,,VWS V14.01,2013-05-13 17:55:00,
2013-05-13 13:00:00,56.8,19.4,30.09,WNW,298,5.0,5.0,23,0.00,,---,0.00,,VWS V14.01,2013-05-13 18:00:00,
2013-05-13 13:05:00,57.6,21.1,30.09,NNW,328,4.0,6.0,24,0.00,,---,0.00,,VWS V14.01,2013-05-13 18:05:00,
2013-05-13 13:10:00,57.2,19.8,30.09,WNW,302,2.0,3.0,23,0.00,,---,0.00,,VWS V14.01,2013-05-13 18:10:00,
2013-05-13 13:15:00,57.6,23.0,30.09,NW,309,3.0,7.0,26,0.00,,---,0.00,,VWS V14.01,2013-05-13 18:15:00,
2013-05-13 13:20:00,58.1,18.4,30.08,NW,304,0.0,1.0,21,0.00,,---,0.00,,VWS V14.01,2013-05-13 18:20:00,
2013-05-13 13:25:00,58.8,22.1,30.08,WNW,294,2.0,3.0,24,0.00,,---,0.00,,VWS V14.01,2013-05-13 18:25:00,
2013-05-13 13:30:00,58.6,18.8,30.08,WNW,299,2.0,4.0,21,0.00,,---,0.00,,VWS V14.01,2013-05-13 18:30:00,
2013-05-13 13:35:00,59.1,19.2,30.08,ENE,75,1.0,4.0,21,0.00,,---,0.00,,VWS V14.01,2013-05-13 18:35:00,
2013-05-13 13:40:00,59.1,19.2,30.08,West,269,2.0,2.0,21,0.00,,---,0.00,,VWS V14.01,2013-05-13 18:40:00,
2013-05-13 13:45:00,59.2,19.3,30.07,West,267,2.0,7.0,21,0.00,,---,0.00,,VWS V14.01,2013-05-13 18:45:00,
2013-05-13 13:50:00,58.8,20.1,30.07,North,350,2.0,3.0,22,0.00,,---,0.00,,VWS V14.01,2013-05-13 18:50:00,
2013-05-13 13:55:00,59.3,20.5,30.07,NW,309,9.0,11.0,22,0.00,,---,0.00,,VWS V14.01,2013-05-13 18:55:00,
2013-05-13 14:00:00,58.3,20.7,30.06,West,271,1.0,11.0,23,0.00,,---,0.00,,VWS V14.01,2013-05-13 19:00:00,
2013-05-13 14:05:00,59.4,21.6,30.06,NW,325,4.0,5.0,23,0.00,,---,0.00,,VWS V14.01,2013-05-13 19:05:00,
2013-05-13 14:10:00,59.3,17.1,30.06,NW,309,3.0,5.0,19,0.00,,---,0.00,,VWS V14.01,2013-05-13 19:10:00,
2013-05-13 14:15:00,59.1,18.1,30.05,NNW,337,2.0,5.0,20,0.00,,---,0.00,,VWS V14.01,2013-05-13 19:15:00,
2013-05-13 14:20:00,60.4,20.3,30.05,NW,325,0.0,5.0,21,0.00,,---,0.00,,VWS V14.01,2013-05-13 19:20:00,
2013-05-13 14:25:00,60.5,19.2,30.05,South,184,0.0,4.0,20,0.00,,---,0.00,,VWS V14.01,2013-05-13 19:25:00,
2013-05-13 14:30:00,61.2,23.1,30.05,SE,137,0.0,4.0,23,0.00,,---,0.00,,VWS V14.01,2013-05-13 19:30:00,
2013-05-13 14:35:00,60.7,21.7,30.05,NE,34,0.0,4.0,22,0.00,,---,0.00,,VWS V14.01,2013-05-13 19:35:00,
2013-05-13 14:40:00,60.7,15.7,30.04,WSW,238,0.0,0.0,17,0.00,,---,0.00,,VWS V14.01,2013-05-13 19:40:00,
2013-05-13 14:45:00,60.3,19.1,30.03,WNW,302,0.0,3.0,20,0.00,,---,0.00,,VWS V14.01,2013-05-13 19:45:00,
2013-05-13 14:50:00,61.9,20.4,30.03,South,186,0.0,4.0,20,0.00,,---,0.00,,VWS V14.01,2013-05-13 19:50:00,
2013-05-13 14:55:00,61.2,18.6,30.03,South,188,0.0,4.0,19,0.00,,---,0.00,,VWS V14.01,2013-05-13 19:55:00,
2013-05-13 15:00:00,62.4,20.8,30.02,NNE,19,0.0,0.0,20,0.00,,---,0.00,,VWS V14.01,2013-05-13 20:00:00,
2013-05-13 15:05:00,62.8,14.5,30.02,West,265,3.0,4.0,15,0.00,,---,0.00,,VWS V14.01,2013-05-13 20:05:00,
2013-05-13 15:10:00,62.2,15.5,30.02,SSW,193,2.0,4.0,16,0.00,,---,0.00,,VWS V14.01,2013-05-13 20:10:00,
2013-05-13 15:15:00,62.4,17.0,30.02,SW,216,0.0,5.0,17,0.00,,---,0.00,,VWS V14.01,2013-05-13 20:15:00,
2013-05-13 15:20:00,62.3,15.6,30.01,SE,135,1.0,5.0,16,0.00,,---,0.00,,VWS V14.01,2013-05-13 20:20:00,
2013-05-13 15:25:00,62.5,14.2,30.02,WSW,252,1.0,4.0,15,0.00,,---,0.00,,VWS V14.01,2013-05-13 20:25:00,
2013-05-13 15:30:00,61.8,15.2,30.02,SE,128,0.0,4.0,16,0.00,,---,0.00,,VWS V14.01,2013-05-13 20:30:00,
2013-05-13 15:35:00,61.4,16.2,30.01,SSE,152,0.0,3.0,17,0.00,,---,0.00,,VWS V14.01,2013-05-13 20:35:00,
2013-05-13 15:40:00,61.7,19.0,30.01,WNW,296,1.0,10.0,19,0.00,,---,0.00,,VWS V14.01,2013-05-13 20:40:00,
2013-05-13 15:45:00,61.9,16.6,30.01,South,182,2.0,3.0,17,0.00,,---,0.00,,VWS V14.01,2013-05-13 20:45:00,
2013-05-13 15:50:00,62.0,15.3,30.01,West,271,0.0,7.0,16,0.00,,---,0.00,,VWS V14.01,2013-05-13 20:50:00,
2013-05-13 15:55:00,62.2,18.2,30.00,SSE,156,2.0,5.0,18,0.00,,---,0.00,,VWS V14.01,2013-05-13 20:55:00,
2013-05-13 16:00:00,62.2,22.9,30.00,West,267,1.0,5.0,22,0.00,,---,0.00,,VWS V14.01,2013-05-13 21:00:00,
2013-05-13 16:05:00,62.6,18.5,30.00,West,263,0.0,3.0,18,0.00,,---,0.00,,VWS V14.01,2013-05-13 21:05:00,
2013-05-13 16:10:00,62.7,21.1,30.00,West,259,3.0,3.0,20,0.00,,---,0.00,,VWS V14.01,2013-05-13 21:10:00,
2013-05-13 16:15:00,62.7,19.9,30.00,West,259,3.0,3.0,19,0.00,,---,0.00,,VWS V14.01,2013-05-13 21:15:00,
2013-05-13 16:20:00,62.8,18.7,30.00,West,259,3.0,3.0,18,0.00,,---,0.00,,VWS V14.01,2013-05-13 21:20:00,
2013-05-13 16:25:00,62.4,18.4,30.00,West,259,3.0,3.0,18,0.00,,---,0.00,,VWS V14.01,2013-05-13 21:25:00,
2013-05-13 16:30:00,62.5,19.7,29.99,West,259,3.0,3.0,19,0.00,,---,0.00,,VWS V14.01,2013-05-13 21:30:00,
2013-05-13 16:35:00,62.5,19.7,29.99,West,273,3.0,4.0,19,0.00,,---,0.00,,VWS V14.01,2013-05-13 21:35:00,
2013-05-13 16:40:00,62.7,21.1,29.99,SW,235,0.0,4.0,20,0.00,,---,0.00,,VWS V14.01,2013-05-13 21:40:00,
2013-05-13 16:45:00,62.7,18.6,29.99,South,189,1.0,4.0,18,0.00,,---,0.00,,VWS V14.01,2013-05-13 21:45:00,
2013-05-13 16:50:00,62.3,21.9,29.99,South,189,0.0,4.0,21,0.00,,---,0.00,,VWS V14.01,2013-05-13 21:50:00,
2013-05-13 16:55:00,62.3,20.8,29.98,South,188,2.0,3.0,20,0.00,,---,0.00,,VWS V14.01,2013-05-13 21:55:00,
2013-05-13 17:00:00,62.2,20.7,29.98,South,188,0.0,3.0,20,0.00,,---,0.00,,VWS V14.01,2013-05-13 22:00:00,
2013-05-13 17:05:00,62.2,20.7,29.98,South,188,1.0,1.0,20,0.00,,---,0.00,,VWS V14.01,2013-05-13 22:05:00,
2013-05-13 17:10:00,62.2,21.8,29.98,South,187,0.0,2.0,21,0.00,,---,0.00,,VWS V14.01,2013-05-13 22:10:00,
2013-05-13 17:15:00,62.3,23.0,29.98,South,187,0.0,3.0,22,0.00,,---,0.00,,VWS V14.01,2013-05-13 22:15:00,
2013-05-13 17:20:00,62.3,20.8,29.98,South,187,0.0,3.0,20,0.00,,---,0.00,,VWS V14.01,2013-05-13 22:20:00,
2013-05-13 17:25:00,62.3,21.9,29.97,North,5,0.0,3.0,21,0.00,,---,0.00,,VWS V14.01,2013-05-13 22:25:00,
2013-05-13 17:30:00,62.2,22.9,29.97,North,360,0.0,3.0,22,0.00,,---,0.00,,VWS V14.01,2013-05-13 22:30:00,
2013-05-13 17:35:00,62.1,23.9,29.97,North,360,0.0,2.0,23,0.00,,---,0.00,,VWS V14.01,2013-05-13 22:35:00,
2013-05-13 17:40:00,62.1,21.7,29.97,North,360,0.0,2.0,21,0.00,,---,0.00,,VWS V14.01,2013-05-13 22:40:00,
2013-05-13 17:45:00,62.0,22.8,29.96,North,360,0.0,1.0,22,0.00,,---,0.00,,VWS V14.01,2013-05-13 22:45:00,
2013-05-13 17:50:00,61.9,26.7,29.95,North,360,0.0,1.0,26,0.00,,---,0.00,,VWS V14.01,2013-05-13 22:50:00,
2013-05-13 17:55:00,61.7,24.6,29.95,North,360,0.0,1.0,24,0.00,,---,0.00,,VWS V14.01,2013-05-13 22:55:00,
2013-05-13 18:00:00,61.5,23.4,29.95,North,360,0.0,1.0,23,0.00,,---,0.00,,VWS V14.01,2013-05-13 23:00:00,
2013-05-13 18:05:00,61.3,23.2,29.95,North,360,0.0,1.0,23,0.00,,---,0.00,,VWS V14.01,2013-05-13 23:05:00,
2013-05-13 18:10:00,61.1,26.0,29.95,North,360,0.0,1.0,26,0.00,,---,0.00,,VWS V14.01,2013-05-13 23:10:00,
2013-05-13 18:15:00,60.9,25.8,29.95,North,360,0.0,3.0,26,0.00,,---,0.00,,VWS V14.01,2013-05-13 23:15:00,
2013-05-13 18:20:00,60.6,24.6,29.94,North,360,0.0,3.0,25,0.00,,---,0.00,,VWS V14.01,2013-05-13 23:20:00,
2013-05-13 18:25:00,60.5,28.9,29.94,North,360,0.0,1.0,30,0.00,,---,0.00,,VWS V14.01,2013-05-13 23:25:00,
2013-05-13 18:30:00,60.3,30.3,29.93,North,360,0.0,1.0,32,0.00,,---,0.00,,VWS V14.01,2013-05-13 23:30:00,
2013-05-13 18:35:00,59.9,30.0,29.95,North,360,0.0,2.0,32,0.00,,---,0.00,,VWS V14.01,2013-05-13 23:35:00,
2013-05-13 18:40:00,59.5,31.1,29.95,North,360,0.0,2.0,34,0.00,,---,0.00,,VWS V14.01,2013-05-13 23:40:00,
2013-05-13 18:45:00,59.2,31.6,29.95,North,360,0.0,0.0,35,0.00,,---,0.00,,VWS V14.01,2013-05-13 23:45:00,
2013-05-13 18:50:00,58.9,29.9,29.95,North,360,0.0,0.0,33,0.00,,---,0.00,,VWS V14.01,2013-05-13 23:50:00,
2013-05-13 18:55:00,58.7,31.1,29.96,North,360,0.0,0.0,35,0.00,,---,0.00,,VWS V14.01,2013-05-13 23:55:00,
2013-05-13 19:00:00,58.6,31.8,29.95,North,360,0.0,0.0,36,0.00,,---,0.00,,VWS V14.01,2013-05-14 00:00:00,
2013-05-13 19:05:00,58.5,31.7,29.96,North,360,0.0,0.0,36,0.00,,---,0.00,,VWS V14.01,2013-05-14 00:05:00,
2013-05-13 19:10:00,58.4,31.6,29.96,North,360,0.0,0.0,36,0.00,,---,0.00,,VWS V14.01,2013-05-14 00:10:00,
2013-05-13 19:15:00,58.3,30.8,29.96,North,360,0.0,0.0,35,0.00,,---,0.00,,VWS V14.01,2013-05-14 00:15:00,
2013-05-13 19:20:00,58.3,31.5,29.96,North,360,0.0,0.0,36,0.00,,---,0.00,,VWS V14.01,2013-05-14 00:20:00,
2013-05-13 19:25:00,58.2,31.4,29.96,North,360,0.0,0.0,36,0.00,,---,0.00,,VWS V14.01,2013-05-14 00:25:00,
2013-05-13 19:30:00,58.1,32.0,29.96,North,360,0.0,0.0,37,0.00,,---,0.00,,VWS V14.01,2013-05-14 00:30:00,
2013-05-13 19:35:00,58.1,34.5,29.96,North,360,0.0,0.0,41,0.00,,---,0.00,,VWS V14.01,2013-05-14 00:35:00,
2013-05-13 19:40:00,58.0,33.2,29.96,North,360,0.0,0.0,39,0.00,,---,0.00,,VWS V14.01,2013-05-14 00:40:00,
2013-05-13 19:45:00,57.8,33.0,29.96,North,360,0.0,0.0,39,0.00,,---,0.00,,VWS V14.01,2013-05-14 00:45:00,
2013-05-13 19:50:00,57.6,32.8,29.95,North,360,0.0,0.0,39,0.00,,---,0.00,,VWS V14.01,2013-05-14 00:50:00,
2013-05-13 19:55:00,57.4,32.7,29.95,SSW,192,0.0,0.0,39,0.00,,---,0.00,,VWS V14.01,2013-05-14 00:55:00,
2013-05-13 20:00:00,57.2,33.1,29.95,SSW,192,0.0,0.0,40,0.00,,---,0.00,,VWS V14.01,2013-05-14 01:00:00,
2013-05-13 20:05:00,57.0,32.9,29.94,SSW,192,0.0,0.0,40,0.00,,---,0.00,,VWS V14.01,2013-05-14 01:05:00,
2013-05-13 20:10:00,56.8,32.8,29.94,SSW,192,0.0,1.0,40,0.00,,---,0.00,,VWS V14.01,2013-05-14 01:10:00,
2013-05-13 20:15:00,56.6,32.6,29.94,SSW,192,0.0,0.0,40,0.00,,---,0.00,,VWS V14.01,2013-05-14 01:15:00,
2013-05-13 20:20:00,56.4,33.6,29.93,SSW,192,0.0,0.0,42,0.00,,---,0.00,,VWS V14.01,2013-05-14 01:20:00,
2013-05-13 20:25:00,56.3,32.3,29.94,SSW,192,0.0,0.0,40,0.00,,---,0.00,,VWS V14.01,2013-05-14 01:25:00,
2013-05-13 20:30:00,56.2,32.8,29.94,SSW,192,0.0,0.0,41,0.00,,---,0.00,,VWS V14.01,2013-05-14 01:30:00,
2013-05-13 20:35:00,56.1,32.1,29.94,SSW,192,0.0,0.0,40,0.00,,---,0.00,,VWS V14.01,2013-05-14 01:35:00,
2013-05-13 20:40:00,56.0,32.7,29.94,SSW,192,0.0,0.0,41,0.00,,---,0.00,,VWS V14.01,2013-05-14 01:40:00,
2013-05-13 20:45:00,56.0,33.8,29.93,SSW,192,0.0,0.0,43,0.00,,---,0.00,,VWS V14.01,2013-05-14 01:45:00,
2013-05-13 20:50:00,55.9,33.8,29.93,SSW,192,0.0,0.0,43,0.00,,---,0.00,,VWS V14.01,2013-05-14 01:50:00,
2013-05-13 20:55:00,55.9,35.4,29.93,SSW,192,0.0,0.0,46,0.00,,---,0.00,,VWS V14.01,2013-05-14 01:55:00,
2013-05-13 21:00:00,55.7,35.8,29.93,SSW,192,0.0,0.0,47,0.00,,---,0.00,,VWS V14.01,2013-05-14 02:00:00,
2013-05-13 21:05:00,55.4,37.1,29.93,SSW,192,0.0,0.0,50,0.00,,---,0.00,,VWS V14.01,2013-05-14 02:05:00,
2013-05-13 21:10:00,55.0,36.2,29.93,SSW,192,0.0,0.0,49,0.00,,---,0.00,,VWS V14.01,2013-05-14 02:10:00,
2013-05-13 21:15:00,54.4,36.2,29.92,SSW,192,0.0,0.0,50,0.00,,---,0.00,,VWS V14.01,2013-05-14 02:15:00,
2013-05-13 21:20:00,54.0,36.8,29.92,SSW,192,0.0,0.0,52,0.00,,---,0.00,,VWS V14.01,2013-05-14 02:20:00,
2013-05-13 21:25:00,53.7,36.5,29.92,SSW,207,0.0,0.0,52,0.00,,---,0.00,,VWS V14.01,2013-05-14 02:25:00,
2013-05-13 21:30:00,53.3,36.6,29.92,WSW,238,1.0,3.0,53,0.00,,---,0.00,,VWS V14.01,2013-05-14 02:30:00,
2013-05-13 21:35:00,53.0,35.9,29.92,West,271,0.0,3.0,52,0.00,,---,0.00,,VWS V14.01,2013-05-14 02:35:00,
2013-05-13 21:40:00,52.5,35.4,29.92,WSW,257,0.0,3.0,52,0.00,,---,0.00,,VWS V14.01,2013-05-14 02:40:00,
2013-05-13 21:45:00,52.1,36.0,29.92,WSW,253,0.0,2.0,54,0.00,,---,0.00,,VWS V14.01,2013-05-14 02:45:00,
2013-05-13 21:50:00,51.7,35.6,29.91,WNW,286,4.0,4.0,54,0.00,,---,0.00,,VWS V14.01,2013-05-14 02:50:00,
2013-05-13 21:55:00,51.3,35.7,29.91,WNW,299,0.0,4.0,55,0.00,,---,0.00,,VWS V14.01,2013-05-14 02:55:00,
2013-05-13 22:00:00,51.1,35.5,29.90,WSW,247,0.0,4.0,55,0.00,,---,0.00,,VWS V14.01,2013-05-14 03:00:00,
2013-05-13 22:05:00,50.9,35.8,29.90,NW,313,1.0,2.0,56,0.00,,---,0.00,,VWS V14.01,2013-05-14 03:05:00,
2013-05-13 22:10:00,50.5,35.4,29.90,SSW,208,0.0,4.0,56,0.00,,---,0.00,,VWS V14.01,2013-05-14 03:10:00,
2013-05-13 22:15:00,50.4,35.3,29.90,SSW,208,0.0,2.0,56,0.00,,---,0.00,,VWS V14.01,2013-05-14 03:15:00,
2013-05-13 22:20:00,50.2,35.6,29.89,SW,234,0.0,2.0,57,0.00,,---,0.00,,VWS V14.01,2013-05-14 03:20:00,
2013-05-13 22:25:00,50.0,35.4,29.89,SW,234,0.0,1.0,57,0.00,,---,0.00,,VWS V14.01,2013-05-14 03:25:00,
2013-05-13 22:30:00,49.9,35.3,29.89,SW,233,0.0,3.0,57,0.00,,---,0.00,,VWS V14.01,2013-05-14 03:30:00,
2013-05-13 22:35:00,49.7,35.1,29.89,WSW,242,0.0,3.0,57,0.00,,---,0.00,,VWS V14.01,2013-05-14 03:35:00,
2013-05-13 22:40:00,49.7,35.1,29.89,WSW,242,0.0,3.0,57,0.00,,---,0.00,,VWS V14.01,2013-05-14 03:40:00,
2013-05-13 22:45:00,49.6,35.5,29.88,WSW,242,0.0,1.0,58,0.00,,---,0.00,,VWS V14.01,2013-05-14 03:45:00,
2013-05-13 22:50:00,49.5,34.9,29.88,WSW,242,0.0,1.0,57,0.00,,---,0.00,,VWS V14.01,2013-05-14 03:50:00,
2013-05-13 22:55:00,49.5,35.3,29.88,WSW,242,0.0,1.0,58,0.00,,---,0.00,,VWS V14.01,2013-05-14 03:55:00,
2013-05-13 23:00:00,49.4,34.8,29.87,WSW,242,1.0,1.0,57,0.00,,---,0.00,,VWS V14.01,2013-05-14 04:00:00,
2013-05-13 23:01:00,49.4,35.3,29.88,WSW,242,0.0,1.0,58,0.00,,---,0.00,,VWS V14.01,2013-05-14 04:01:00,
2013-05-13 23:06:00,49.3,34.7,29.87,WSW,242,0.0,2.0,57,0.00,,---,0.00,,VWS V14.01,2013-05-14 04:06:00,
2013-05-13 23:10:00,49.3,35.6,29.87,WSW,242,0.0,2.0,59,0.00,,SCT055,0.00,0.00,VWS V14.01,2013-05-14 04:10:00,
2013-05-13 23:11:00,49.3,35.2,29.87,WSW,242,0.0,0.0,58,0.00,,---,0.00,,VWS V14.01,2013-05-14 04:11:00,
2013-05-13 23:16:00,49.2,35.5,29.87,WSW,242,1.0,2.0,59,0.00,,---,0.00,,VWS V14.01,2013-05-14 04:16:00,
2013-05-13 23:20:00,49.2,35.1,29.86,WSW,242,0.0,2.0,58,0.00,,SCT055,0.00,0.00,VWS V14.01,2013-05-14 04:20:00,
2013-05-13 23:21:00,49.2,35.1,29.86,WSW,242,0.0,0.0,58,0.00,,---,0.00,,VWS V14.01,2013-05-14 04:21:00,
2013-05-13 23:26:00,49.1,35.0,29.86,WSW,242,0.0,1.0,58,0.00,,---,0.00,,VWS V14.01,2013-05-14 04:26:00,
2013-05-13 23:30:00,49.0,34.9,29.86,WSW,242,0.0,1.0,58,0.00,,SCT055,0.00,0.00,VWS V14.01,2013-05-14 04:30:00,
2013-05-13 23:31:00,49.0,34.9,29.86,WSW,242,0.0,1.0,58,0.00,,---,0.00,,VWS V14.01,2013-05-14 04:31:00,
2013-05-13 23:36:00,48.8,34.7,29.86,WSW,242,0.0,1.0,58,0.00,,---,0.00,,VWS V14.01,2013-05-14 04:36:00,
2013-05-13 23:40:00,48.7,34.6,29.86,WSW,242,0.0,1.0,58,0.00,,SCT055,0.00,0.00,VWS V14.01,2013-05-14 04:40:00,
2013-05-13 23:41:00,48.7,34.6,29.86,WSW,242,0.0,0.0,58,0.00,,---,0.00,,VWS V14.01,2013-05-14 04:41:00,
2013-05-13 23:46:00,48.6,34.9,29.86,WSW,242,0.0,0.0,59,0.00,,---,0.00,,VWS V14.01,2013-05-14 04:46:00,
2013-05-13 23:50:00,48.5,34.8,29.86,WSW,242,0.0,0.0,59,0.00,,SCT055,0.00,0.00,VWS V14.01,2013-05-14 04:50:00,
2013-05-13 23:51:00,48.5,34.8,29.86,WSW,242,0.0,0.0,59,0.00,,---,0.00,,VWS V14.01,2013-05-14 04:51:00,
2013-05-13 23:56:00,48.5,34.8,29.86,WSW,242,0.0,0.0,59,0.00,,---,0.00,,VWS V14.01,2013-05-14 04:56:00,